R8AHC-13 Weather Reports


Display with metric or nautical units.
time (UTC)temp
F
wind
direction
speed
MPH
gust
MPH
rain 1hr
in
rain 24hr
in
rain mn
in
humidity
%
barometer
mb
20260508173702 63 180 7.0 0.0 0.00 0.00 0.00 72 1007.0
20260508163702 63 180 4.0 0.0 0.00 0.00 0.00 72 1007.0
20260508153702 70 190 4.0 0.0 0.00 0.00 0.00 52 1008.0
20260508143702 70 150 7.0 0.0 0.00 0.00 0.00 52 1008.0
20260508133702 70 140 7.0 0.0 0.00 0.00 0.00 52 1008.0
20260508123702 70 130 13.0 0.0 0.00 0.00 0.00 52 1008.0
20260508113702 70 350 9.0 0.0 0.00 0.00 0.00 52 1008.0
20260508103702 70 20 7.0 0.0 0.00 0.00 0.00 52 1009.0
20260508093701 70 10 9.0 0.0 0.00 0.00 0.00 52 1009.0
20260508083702 70 360 9.0 0.0 0.00 0.00 0.00 52 1010.0
20260508073702 64 360 9.0 0.0 0.00 0.00 0.00 63 1010.0
20260508063702 64 360 11.0 0.0 0.00 0.00 0.00 63 1010.0
20260508053702 61 10 7.0 0.0 0.00 0.00 0.00 72 1011.0
20260508043701 61 360 7.0 0.0 0.00 0.00 0.00 72 1011.0
20260508033702 57 350 9.0 0.0 0.00 0.00 0.00 54 1011.0
20260508023701 57 360 4.0 0.0 0.00 0.00 0.00 54 1011.0
20260508013701 57 340 7.0 0.0 0.00 0.00 0.00 54 1011.0
20260508003702 57 330 4.0 0.0 0.00 0.00 0.00 54 1011.0
20260507233702 57 50 2.0 0.0 0.00 0.00 0.00 54 1010.0
20260507223702 57 160 2.0 0.0 0.00 0.00 0.00 54 1011.0
20260507213702 57 330 2.0 0.0 0.00 0.00 0.00 54 1011.0
20260507203702 57 0.0 0.0 0.00 0.00 0.00 54 1011.0
20260507193702 57 340 9.0 0.0 0.00 0.00 0.00 54 1011.0
20260507183702 57 0.0 0.0 0.00 0.00 0.00 54 1011.0